Location: Unspecified
(35.7250°N, 0.0000°E)
Time: 23:19:24
(UTC+00:00)

Courier 1B - Visible Passes

Search period start: 18 June 2019 00:00
Search period end: 28 June 2019 00:00
Orbit: 963 x 1209 km, 28.3° (Epoch: 18 June)

Date Brightness Start Highest point End Pass type
(mag) Time Alt. Az. Time Alt. Az. Time Alt. Az.
18 Jun 8.3 20:09:36 10° SW 20:16:35 42° SSE 20:23:50 10° E visible
18 Jun 8.0 22:03:07 10° WSW 22:10:30 50° S 22:11:02 49° S visible
18 Jun 9.9 23:57:24 10° W 23:57:56 12° WSW 23:57:56 12° WSW visible
19 Jun 8.1 21:09:21 10° WSW 21:16:37 50° S 21:20:27 28° ESE visible
19 Jun 9.0 23:03:23 10° W 23:07:20 29° WSW 23:07:20 29° WSW visible
20 Jun 8.2 20:15:40 10° WSW 20:22:46 48° S 20:29:47 12° ESE visible
20 Jun 8.2 22:09:29 10° W 22:16:39 45° S 22:16:39 45° S visible
21 Jun 8.2 21:15:40 10° WSW 21:22:50 48° S 21:25:56 32° SE visible
21 Jun 9.4 23:10:01 10° WSW 23:12:48 21° WSW 23:12:48 21° WSW visible
22 Jun 8.2 20:21:56 10° WSW 20:29:00 49° S 20:35:11 15° ESE visible
22 Jun 8.5 22:16:00 10° W 22:22:03 36° SSW 22:22:03 36° SSW visible
23 Jun 8.3 21:22:07 10° W 21:29:02 41° SSW 21:31:18 34° SSE visible
23 Jun 9.8 23:17:03 10° WSW 23:18:10 13° WSW 23:18:10 13° WSW visible
24 Jun 8.3 20:28:19 10° WSW 20:35:13 45° S 20:40:32 18° SE visible
24 Jun 9.0 22:22:47 10° WSW 22:27:24 25° SW 22:27:24 25° SW visible
25 Jun 8.3 19:34:37 10° WSW 19:41:25 47° S 19:48:37 10° ESE visible
25 Jun 8.6 21:28:45 10° WSW 21:35:11 32° SSW 21:36:39 30° S visible
26 Jun 8.5 20:34:52 10° WSW 20:41:24 36° SSW 20:45:54 20° SE visible
26 Jun 9.6 22:30:13 10° WSW 22:32:47 16° SW 22:32:47 16° SW visible
27 Jun 8.4 19:41:05 10° WSW 19:47:39 41° S 19:54:35 10° SE visible
27 Jun 9.1 21:35:48 10° WSW 21:41:15 22° SSW 21:42:03 22° SSW visible
